Location: ?????
(54.9266°N, 38.5527°E)
Time: 18:34:57
(UTC+00:00)

deb REX - Pass Details

Date: 28 September 2024
Orbit: 705 x 731 km, 89.8° (Epoch: 08 October)

Event Time Altitude Azimuth Distance (km) Brightness Sun altitude
Rises 01:01:51 0° 11° (N) 3,119 ? -20.4°
Reaches altitude 10° 01:05:13 10° 36° (NE) 2,191 ? -20.0°
Maximum altitude 01:07:52 15° 69° (ENE) 1,891 ? -19.6°
Drops below altitude 10° 01:10:31 10° 103° (ESE) 2,180 ? -19.3°
Sets 01:13:50 0° 127° (SE) 3,093 ? -18.9°
